| time (UTC) | temp F | wind direction | speed MPH | gust MPH | rain 1hr in | rain 24hr in | rain mn in | humidity % | barometer mb |
| 20260506014010 | 60 | 210 | 0.0 | 10.0 | 0.00 | 0.01 | 0.01 | 38 | 1011.1 |
| 20260506013514 | 60 | 223 | 1.0 | 10.0 | 0.00 | 0.01 | 0.01 | 38 | 1011.1 |
| 20260506013010 | 61 | 221 | 0.0 | 9.0 | 0.00 | 0.01 | 0.01 | 38 | 1011.0 |
| 20260506012510 | 61 | 238 | 0.0 | 13.0 | 0.00 | 0.01 | 0.01 | 37 | 1011.0 |
| 20260506012009 | 61 | 280 | 0.0 | 13.0 | 0.00 | 0.01 | 0.01 | 36 | 1011.0 |
| 20260506011509 | 61 | 257 | 1.0 | 12.0 | 0.00 | 0.01 | 0.01 | 36 | 1010.9 |
| 20260506011010 | 62 | 215 | 0.0 | 7.0 | 0.00 | 0.01 | 0.01 | 36 | 1010.8 |
| 20260506010509 | 62 | 181 | 1.0 | 7.0 | 0.00 | 0.01 | 0.01 | 35 | 1010.6 |
| 20260506010009 | 62 | 219 | 0.0 | 7.0 | 0.00 | 0.01 | 0.01 | 35 | 1010.7 |
| 20260506005516 | 63 | 215 | 0.0 | 3.0 | 0.00 | 0.01 | 0.01 | 36 | 1010.6 |
| 20260506005008 | 63 | 225 | 0.0 | 6.0 | 0.00 | 0.01 | 0.01 | 36 | 1010.5 |
| 20260506004520 | 62 | 175 | 0.0 | 8.0 | 0.00 | 0.01 | 0.01 | 37 | 1010.4 |
| 20260506004008 | 62 | 219 | 2.0 | 11.0 | 0.00 | 0.01 | 0.01 | 36 | 1010.5 |
| 20260506003508 | 63 | 191 | 1.0 | 11.0 | 0.00 | 0.01 | 0.01 | 35 | 1010.3 |
| 20260506003008 | 63 | 169 | 0.0 | 7.0 | 0.00 | 0.01 | 0.01 | 35 | 1010.5 |
| 20260506002509 | 63 | 253 | 0.0 | 4.0 | 0.00 | 0.01 | 0.01 | 35 | 1010.5 |
| 20260506002008 | 63 | 232 | 0.0 | 7.0 | 0.00 | 0.01 | 0.01 | 34 | 1010.5 |
| 20260506001508 | 64 | 175 | 1.0 | 7.0 | 0.00 | 0.01 | 0.01 | 33 | 1010.4 |
| 20260506001008 | 64 | 208 | 0.0 | 7.0 | 0.00 | 0.01 | 0.01 | 32 | 1010.4 |
| 20260506000507 | 64 | 228 | 0.0 | 4.0 | 0.00 | 0.01 | 0.01 | 33 | 1010.4 |
| 20260506000008 | 63 | 224 | 0.0 | 6.0 | 0.00 | 0.01 | 0.01 | 34 | 1010.4 |
| 20260505235507 | 63 | 219 | 1.0 | 6.0 | 0.00 | 0.01 | 0.01 | 35 | 1010.5 |
| 20260505235007 | 63 | 204 | 0.0 | 7.0 | 0.00 | 0.01 | 0.01 | 35 | 1010.4 |
| 20260505234509 | 63 | 190 | 1.0 | 7.0 | 0.00 | 0.01 | 0.01 | 35 | 1010.4 |
| 20260505234006 | 64 | 182 | 1.0 | 9.0 | 0.00 | 0.01 | 0.01 | 35 | 1010.3 |
| 20260505233506 | 64 | 167 | 1.0 | 9.0 | 0.00 | 0.01 | 0.01 | 34 | 1010.1 |
| 20260505233006 | 64 | 163 | 2.0 | 7.0 | 0.00 | 0.01 | 0.01 | 35 | 1010.2 |
| 20260505232506 | 63 | 231 | 0.0 | 9.0 | 0.00 | 0.01 | 0.01 | 35 | 1010.0 |
| 20260505232006 | 63 | 195 | 1.0 | 9.0 | 0.00 | 0.01 | 0.01 | 35 | 1010.2 |
| 20260505231508 | 64 | 155 | 1.0 | 11.0 | 0.00 | 0.01 | 0.01 | 34 | 1010.2 |
| 20260505231006 | 63 | 202 | 1.0 | 11.0 | 0.00 | 0.01 | 0.01 | 36 | 1010.1 |
| 20260505230506 | 63 | 199 | 0.0 | 10.0 | 0.00 | 0.01 | 0.01 | 34 | 1010.4 |
| 20260505230015 | 64 | 228 | 1.0 | 14.0 | 0.00 | 0.01 | 0.01 | 33 | 1010.1 |
| 20260505225507 | 64 | 180 | 3.0 | 9.0 | 0.00 | 0.01 | 0.01 | 32 | 1010.1 |
| 20260505225006 | 64 | 186 | 1.0 | 10.0 | 0.00 | 0.01 | 0.01 | 32 | 1010.0 |
| 20260505224506 | 64 | 196 | 1.0 | 10.0 | 0.00 | 0.01 | 0.01 | 32 | 1010.1 |
| 20260505224004 | 64 | 182 | 3.0 | 14.0 | 0.00 | 0.01 | 0.01 | 32 | 1010.2 |
| 20260505223504 | 65 | 202 | 2.0 | 14.0 | 0.00 | 0.01 | 0.01 | 32 | 1010.1 |
| 20260505223005 | 64 | 196 | 0.0 | 8.0 | 0.00 | 0.01 | 0.01 | 33 | 1010.2 |
| 20260505222504 | 63 | 163 | 1.0 | 7.0 | 0.00 | 0.01 | 0.01 | 33 | 1010.3 |
| 20260505222005 | 63 | 220 | 2.0 | 8.0 | 0.00 | 0.01 | 0.01 | 34 | 1010.5 |
| 20260505221504 | 63 | 181 | 1.0 | 11.0 | 0.00 | 0.01 | 0.01 | 36 | 1010.4 |
| 20260505221004 | 63 | 193 | 1.0 | 11.0 | 0.00 | 0.01 | 0.01 | 36 | 1010.5 |
| 20260505220503 | 63 | 157 | 2.0 | 11.0 | 0.00 | 0.01 | 0.01 | 36 | 1010.5 |
| 20260505220004 | 63 | 159 | 2.0 | 7.0 | 0.00 | 0.01 | 0.01 | 36 | 1010.4 |
| 20260505215505 | 63 | 238 | 0.0 | 12.0 | 0.00 | 0.01 | 0.01 | 37 | 1010.7 |
| 20260505215004 | 63 | 149 | 3.0 | 12.0 | 0.00 | 0.01 | 0.01 | 36 | 1010.6 |
| 20260505214613 | 64 | 209 | 2.0 | 9.0 | 0.00 | 0.01 | 0.01 | 36 | 1010.8 |
| 20260505214003 | 64 | 233 | 2.0 | 10.0 | 0.00 | 0.01 | 0.01 | 36 | 1010.8 |
| 20260505213503 | 64 | 199 | 1.0 | 10.0 | 0.00 | 0.01 | 0.01 | 36 | 1010.9 |
| 20260505213004 | 64 | 223 | 0.0 | 11.0 | 0.00 | 0.01 | 0.01 | 36 | 1010.8 |
| 20260505212503 | 65 | 168 | 0.0 | 11.0 | 0.00 | 0.01 | 0.01 | 34 | 1010.8 |
| 20260505212002 | 66 | 187 | 2.0 | 10.0 | 0.00 | 0.01 | 0.01 | 34 | 1011.1 |
| 20260505211502 | 66 | 217 | 4.0 | 11.0 | 0.00 | 0.01 | 0.01 | 34 | 1011.2 |
| 20260505211002 | 66 | 206 | 3.0 | 10.0 | 0.00 | 0.01 | 0.01 | 34 | 1011.0 |
| 20260505210501 | 66 | 257 | 3.0 | 11.0 | 0.00 | 0.01 | 0.01 | 34 | 1011.4 |
| 20260505210001 | 66 | 242 | 1.0 | 15.0 | 0.00 | 0.01 | 0.01 | 34 | 1011.2 |
| 20260505205503 | 66 | 210 | 3.0 | 15.0 | 0.00 | 0.01 | 0.01 | 32 | 1011.5 |
| 20260505205001 | 65 | 223 | 0.0 | 7.0 | 0.00 | 0.01 | 0.01 | 36 | 1011.3 |
| 20260505204501 | 65 | 159 | 1.0 | 10.0 | 0.00 | 0.01 | 0.01 | 37 | 1011.1 |
| 20260505204100 | 66 | 246 | 1.0 | 10.0 | 0.00 | 0.01 | 0.01 | 37 | 1011.3 |
| 20260505203601 | 66 | 184 | 1.0 | 10.0 | 0.00 | 0.01 | 0.01 | 38 | 1011.4 |
| 20260505203059 | 65 | 220 | 1.0 | 10.0 | 0.00 | 0.01 | 0.01 | 38 | 1011.2 |
| 20260505202601 | 64 | 202 | 2.0 | 13.0 | 0.00 | 0.01 | 0.01 | 42 | 1011.4 |
| 20260505202058 | 64 | 209 | 1.0 | 13.0 | 0.00 | 0.01 | 0.01 | 41 | 1011.4 |
| 20260505201557 | 64 | 182 | 2.0 | 12.0 | 0.00 | 0.01 | 0.01 | 42 | 1011.4 |
| 20260505201056 | 64 | 198 | 0.0 | 12.0 | 0.00 | 0.01 | 0.01 | 43 | 1011.4 |
| 20260505200556 | 63 | 198 | 0.0 | 6.0 | 0.00 | 0.01 | 0.01 | 46 | 1011.4 |
| 20260505200055 | 63 | 192 | 0.0 | 10.0 | 0.00 | 0.01 | 0.01 | 46 | 1011.5 |
| 20260505195555 | 63 | 198 | 1.0 | 11.0 | 0.00 | 0.01 | 0.01 | 46 | 1011.4 |
| 20260505195055 | 64 | 171 | 2.0 | 10.0 | 0.00 | 0.01 | 0.01 | 47 | 1011.4 |
| 20260505194556 | 63 | 227 | 0.0 | 10.0 | 0.00 | 0.01 | 0.01 | 47 | 1011.4 |
| 20260505194054 | 64 | 192 | 3.0 | 9.0 | 0.00 | 0.01 | 0.01 | 47 | 1011.5 |
| 20260505193553 | 64 | 200 | 1.0 | 9.0 | 0.00 | 0.01 | 0.01 | 47 | 1011.8 |
| 20260505193052 | 63 | 235 | 2.0 | 8.0 | 0.00 | 0.01 | 0.01 | 48 | 1011.9 |
| 20260505192551 | 63 | 206 | 1.0 | 5.0 | 0.00 | 0.01 | 0.01 | 48 | 1011.8 |
| 20260505192051 | 63 | 180 | 0.0 | 8.0 | 0.00 | 0.01 | 0.01 | 50 | 1011.7 |
| 20260505191555 | 63 | 209 | 2.0 | 14.0 | 0.00 | 0.01 | 0.01 | 48 | 1011.8 |
| 20260505191053 | 63 | 140 | 2.0 | 14.0 | 0.00 | 0.01 | 0.01 | 48 | 1011.7 |
| 20260505190554 | 63 | 226 | 2.0 | 11.0 | 0.00 | 0.01 | 0.01 | 48 | 1012.0 |
| 20260505190050 | 63 | 204 | 0.0 | 10.0 | 0.00 | 0.01 | 0.01 | 50 | 1012.1 |
| 20260505185550 | 62 | 202 | 3.0 | 10.0 | 0.00 | 0.01 | 0.01 | 50 | 1012.0 |
| 20260505185050 | 62 | 220 | 2.0 | 10.0 | 0.00 | 0.01 | 0.01 | 51 | 1012.0 |
| 20260505184549 | 62 | 225 | 2.0 | 12.0 | 0.00 | 0.01 | 0.01 | 49 | 1012.0 |
| 20260505184049 | 62 | 189 | 4.0 | 12.0 | 0.00 | 0.01 | 0.01 | 49 | 1012.1 |
| 20260505183548 | 62 | 206 | 0.0 | 9.0 | 0.00 | 0.01 | 0.01 | 50 | 1012.0 |
| 20260505183048 | 62 | 150 | 1.0 | 7.0 | 0.00 | 0.01 | 0.01 | 49 | 1011.7 |
| 20260505182548 | 63 | 151 | 1.0 | 8.0 | 0.00 | 0.01 | 0.01 | 48 | 1011.9 |
| 20260505182047 | 62 | 204 | 1.0 | 8.0 | 0.00 | 0.01 | 0.01 | 50 | 1012.1 |
| 20260505181606 | 62 | 188 | 0.0 | 7.0 | 0.00 | 0.01 | 0.01 | 51 | 1011.8 |
| 20260505181045 | 61 | 186 | 1.0 | 7.0 | 0.00 | 0.01 | 0.01 | 52 | 1012.0 |
| 20260505180543 | 61 | 160 | 1.0 | 10.0 | 0.00 | 0.01 | 0.01 | 53 | 1012.0 |
| 20260505180054 | 60 | 169 | 1.0 | 10.0 | 0.00 | 0.01 | 0.01 | 54 | 1011.9 |
| 20260505175541 | 60 | 178 | 2.0 | 6.0 | 0.00 | 0.01 | 0.01 | 54 | 1012.1 |
| 20260505175039 | 59 | 209 | 0.0 | 7.0 | 0.00 | 0.01 | 0.01 | 58 | 1012.1 |
| 20260505174543 | 58 | 232 | 1.0 | 7.0 | 0.00 | 0.01 | 0.01 | 58 | 1012.2 |
| 20260505174039 | 58 | 197 | 0.0 | 6.0 | 0.00 | 0.01 | 0.01 | 58 | 1012.1 |
| 20260505173538 | 58 | 249 | 1.0 | 7.0 | 0.00 | 0.01 | 0.01 | 58 | 1012.0 |
| 20260505173038 | 58 | 275 | 0.0 | 7.0 | 0.00 | 0.01 | 0.01 | 58 | 1012.1 |
| 20260505172538 | 58 | 204 | 1.0 | 7.0 | 0.00 | 0.01 | 0.01 | 57 | 1012.1 |
| 20260505172038 | 58 | 219 | 0.0 | 9.0 | 0.00 | 0.01 | 0.01 | 57 | 1011.8 |
| 20260505171542 | 58 | 192 | 1.0 | 14.0 | 0.00 | 0.01 | 0.01 | 57 | 1011.7 |
| 20260505171038 | 58 | 209 | 0.0 | 13.0 | 0.00 | 0.01 | 0.01 | 56 | 1011.8 |
| 20260505170538 | 58 | 191 | 3.0 | 13.0 | 0.00 | 0.01 | 0.01 | 56 | 1011.9 |
| 20260505170038 | 58 | 211 | 2.0 | 10.0 | 0.00 | 0.01 | 0.01 | 56 | 1011.9 |
| 20260505165541 | 58 | 214 | 1.0 | 7.0 | 0.00 | 0.01 | 0.01 | 56 | 1011.9 |
| 20260505165037 | 58 | 178 | 0.0 | 7.0 | 0.00 | 0.01 | 0.01 | 56 | 1011.9 |
| 20260505164537 | 58 | 217 | 2.0 | 13.0 | 0.00 | 0.01 | 0.01 | 56 | 1012.0 |
| 20260505164036 | 58 | 277 | 0.0 | 8.0 | 0.00 | 0.01 | 0.01 | 57 | 1011.9 |
| 20260505163535 | 58 | 215 | 1.0 | 8.0 | 0.00 | 0.01 | 0.01 | 59 | 1011.9 |
| 20260505163034 | 57 | 215 | 0.0 | 8.0 | 0.00 | 0.01 | 0.01 | 59 | 1011.8 |
| 20260505162534 | 57 | 217 | 0.0 | 8.0 | 0.00 | 0.01 | 0.01 | 59 | 1011.8 |
| 20260505162033 | 57 | 196 | 3.0 | 9.0 | 0.00 | 0.01 | 0.01 | 59 | 1011.8 |
| 20260505161533 | 57 | 210 | 0.0 | 7.0 | 0.00 | 0.01 | 0.01 | 60 | 1011.7 |
| 20260505161032 | 57 | 208 | 1.0 | 7.0 | 0.00 | 0.01 | 0.01 | 60 | 1011.7 |
| 20260505160532 | 56 | 223 | 1.0 | 6.0 | 0.00 | 0.01 | 0.01 | 64 | 1011.8 |
| 20260505153036 | 55 | 161 | 0.0 | 14.0 | 0.00 | 0.01 | 0.01 | 68 | 1011.5 |
| 20260505152528 | 55 | 148 | 1.0 | 14.0 | 0.00 | 0.01 | 0.01 | 67 | 1011.5 |
| 20260505152026 | 55 | 215 | 1.0 | 7.0 | 0.00 | 0.01 | 0.01 | 68 | 1011.4 |
| 20260505151526 | 55 | 257 | 2.0 | 7.0 | 0.00 | 0.01 | 0.01 | 68 | 1011.4 |
| 20260505151026 | 55 | 192 | 0.0 | 7.0 | 0.00 | 0.01 | 0.01 | 68 | 1011.2 |
| 20260505150526 | 55 | 163 | 1.0 | 9.0 | 0.00 | 0.01 | 0.01 | 69 | 1011.2 |
| 20260505140520 | 51 | 175 | 0.0 | 2.0 | 0.01 | 0.01 | 0.01 | 76 | 1010.8 |
| 20260505125007 | 56 | 211 | 0.0 | 1.0 | 0.00 | 0.00 | 0.00 | 59 | 1010.0 |
| 20260505124508 | 56 | 230 | 0.0 | 1.0 | 0.00 | 0.00 | 0.00 | 60 | 1010.0 |
| 20260505124007 | 56 | 163 | 0.0 | 2.0 | 0.00 | 0.00 | 0.00 | 61 | 1009.9 |
| 20260505123508 | 56 | 154 | 0.0 | 2.0 | 0.00 | 0.00 | 0.00 | 61 | 1009.8 |
| 20260505123005 | 56 | 154 | 0.0 | 4.0 | 0.00 | 0.00 | 0.00 | 62 | 1009.7 |
| 20260505122504 | 56 | 232 | 0.0 | 4.0 | 0.00 | 0.00 | 0.00 | 62 | 1009.7 |
| 20260505122004 | 56 | 157 | 0.0 | 4.0 | 0.00 | 0.00 | 0.00 | 62 | 1010.0 |
| 20260505121504 | 56 | 153 | 1.0 | 6.0 | 0.00 | 0.00 | 0.00 | 62 | 1010.2 |
| 20260505121004 | 56 | 216 | 0.0 | 6.0 | 0.00 | 0.00 | 0.00 | 63 | 1010.1 |
| 20260505120502 | 56 | 210 | 1.0 | 6.0 | 0.00 | 0.00 | 0.00 | 61 | 1010.3 |
| 20260505120003 | 57 | 234 | 0.0 | 5.0 | 0.00 | 0.00 | 0.00 | 53 | 1010.0 |
| 20260505115502 | 56 | 199 | 0.0 | 2.0 | 0.00 | 0.00 | 0.00 | 58 | 1009.9 |
| 20260505115002 | 56 | 200 | 0.0 | 3.0 | 0.00 | 0.00 | 0.00 | 58 | 1010.0 |
| 20260505114502 | 56 | 217 | 0.0 | 3.0 | 0.00 | 0.00 | 0.00 | 56 | 1010.3 |
| 20260505114002 | 57 | 207 | 0.0 | 8.0 | 0.00 | 0.00 | 0.00 | 57 | 1010.2 |
| 20260505113603 | 57 | 216 | 0.0 | 8.0 | 0.00 | 0.00 | 0.00 | 56 | 1010.7 |
| 20260505113101 | 57 | 165 | 0.0 | 7.0 | 0.00 | 0.00 | 0.00 | 55 | 1010.6 |
| 20260505112559 | 56 | 213 | 0.0 | 7.0 | 0.00 | 0.00 | 0.00 | 57 | 1010.6 |
| 20260505112059 | 56 | 168 | 0.0 | 2.0 | 0.00 | 0.00 | 0.00 | 59 | 1010.8 |
| 20260505111603 | 56 | 229 | 0.0 | 4.0 | 0.00 | 0.00 | 0.00 | 59 | 1010.8 |
| 20260505111059 | 56 | 213 | 0.0 | 6.0 | 0.00 | 0.00 | 0.00 | 60 | 1010.8 |
| 20260505110558 | 56 | 232 | 0.0 | 2.0 | 0.00 | 0.00 | 0.00 | 60 | 1010.9 |
| 20260505110113 | 56 | 229 | 0.0 | 4.0 | 0.00 | 0.00 | 0.00 | 60 | 1011.0 |
| 20260505102055 | 57 | 217 | 0.0 | 3.0 | 0.00 | 0.00 | 0.00 | 52 | 1011.3 |
| 20260505101556 | 56 | 206 | 0.0 | 1.0 | 0.00 | 0.00 | 0.00 | 46 | 1011.6 |
| 20260505101051 | 56 | 197 | 0.0 | 1.0 | 0.00 | 0.00 | 0.00 | 46 | 1011.6 |
| 20260505100551 | 56 | 28 | 0.0 | 0.0 | 0.00 | 0.00 | 0.00 | 45 | 1011.6 |
| 20260505100050 | 56 | 29 | 0.0 | 0.0 | 0.00 | 0.00 | 0.00 | 45 | 1011.6 |
| 20260505095549 | 56 | 29 | 0.0 | 0.0 | 0.00 | 0.00 | 0.00 | 43 | 1011.8 |
| 20260505095049 | 56 | 29 | 0.0 | 0.0 | 0.00 | 0.00 | 0.00 | 43 | 1011.8 |
| 20260505094547 | 57 | 29 | 0.0 | 0.0 | 0.00 | 0.00 | 0.00 | 42 | 1011.9 |
| 20260505094047 | 57 | 29 | 0.0 | 0.0 | 0.00 | 0.00 | 0.00 | 41 | 1011.9 |
| 20260505093545 | 57 | 10 | 0.0 | 0.0 | 0.00 | 0.00 | 0.00 | 41 | 1012.1 |
| 20260505093048 | 57 | 10 | 0.0 | 0.0 | 0.00 | 0.00 | 0.00 | 40 | 1012.1 |
| 20260505092543 | 57 | 10 | 0.0 | 0.0 | 0.00 | 0.00 | 0.00 | 39 | 1012.4 |
| 20260505092042 | 58 | 10 | 0.0 | 0.0 | 0.00 | 0.00 | 0.00 | 39 | 1012.3 |
| 20260505091552 | 58 | 10 | 0.0 | 0.0 | 0.00 | 0.00 | 0.00 | 38 | 1012.3 |
| 20260505091041 | 58 | 10 | 0.0 | 3.0 | 0.00 | 0.00 | 0.00 | 35 | 1012.3 |
| 20260505090541 | 58 | 10 | 0.0 | 3.0 | 0.00 | 0.00 | 0.00 | 35 | 1012.4 |
| 20260505090041 | 58 | 212 | 0.0 | 0.0 | 0.00 | 0.00 | 0.00 | 33 | 1012.6 |
| 20260505085542 | 58 | 207 | 0.0 | 0.0 | 0.00 | 0.00 | 0.00 | 33 | 1012.4 |
| 20260505085042 | 58 | 207 | 0.0 | 1.0 | 0.00 | 0.00 | 0.00 | 33 | 1012.4 |
| 20260505084544 | 58 | 207 | 0.0 | 1.0 | 0.00 | 0.00 | 0.00 | 31 | 1012.5 |
| 20260505084039 | 58 | 231 | 0.0 | 0.0 | 0.00 | 0.00 | 0.00 | 34 | 1012.7 |
| 20260505083540 | 58 | 231 | 0.0 | 0.0 | 0.00 | 0.00 | 0.00 | 34 | 1012.8 |
| 20260505083051 | 58 | 231 | 0.0 | 0.0 | 0.00 | 0.00 | 0.00 | 34 | 1012.8 |
| 20260505082538 | 58 | 231 | 0.0 | 0.0 | 0.00 | 0.00 | 0.00 | 33 | 1012.8 |
| 20260505082037 | 58 | 231 | 0.0 | 0.0 | 0.00 | 0.00 | 0.00 | 35 | 1012.8 |
| 20260505081537 | 58 | 231 | 0.0 | 1.0 | 0.00 | 0.00 | 0.00 | 34 | 1012.9 |
| 20260505081037 | 58 | 231 | 0.0 | 1.0 | 0.00 | 0.00 | 0.00 | 36 | 1013.0 |
| 20260505080536 | 58 | 213 | 0.0 | 3.0 | 0.00 | 0.00 | 0.00 | 36 | 1012.9 |
| 20260505080036 | 59 | 249 | 0.0 | 3.0 | 0.00 | 0.00 | 0.00 | 35 | 1012.8 |
| 20260505075538 | 59 | 225 | 0.0 | 1.0 | 0.00 | 0.00 | 0.00 | 34 | 1012.5 |
| 20260505075034 | 59 | 224 | 0.0 | 3.0 | 0.00 | 0.00 | 0.00 | 34 | 1012.6 |
| 20260505074535 | 59 | 248 | 0.0 | 5.0 | 0.00 | 0.00 | 0.00 | 34 | 1012.6 |
| 20260505074034 | 59 | 227 | 0.0 | 6.0 | 0.00 | 0.00 | 0.00 | 36 | 1012.9 |
| 20260505073533 | 59 | 207 | 0.0 | 6.0 | 0.00 | 0.00 | 0.00 | 37 | 1013.1 |
| 20260505073032 | 59 | 255 | 0.0 | 10.0 | 0.00 | 0.00 | 0.00 | 37 | 1013.1 |
| 20260505072532 | 59 | 202 | 0.0 | 10.0 | 0.00 | 0.00 | 0.00 | 37 | 1013.2 |
| 20260505072030 | 59 | 355 | 0.0 | 4.0 | 0.00 | 0.00 | 0.00 | 37 | 1013.3 |
| 20260505071530 | 59 | 236 | 0.0 | 3.0 | 0.00 | 0.00 | 0.00 | 36 | 1012.8 |
| 20260505071029 | 59 | 206 | 0.0 | 3.0 | 0.00 | 0.00 | 0.00 | 36 | 1013.2 |
| 20260505070533 | 60 | 202 | 0.0 | 1.0 | 0.00 | 0.00 | 0.00 | 37 | 1013.3 |
| 20260505070030 | 60 | 201 | 0.0 | 6.0 | 0.00 | 0.00 | 0.00 | 36 | 1013.1 |
| 20260505065528 | 60 | 229 | 0.0 | 6.0 | 0.00 | 0.00 | 0.00 | 36 | 1013.0 |
| 20260505065027 | 60 | 196 | 0.0 | 6.0 | 0.00 | 0.00 | 0.00 | 37 | 1013.2 |
| 20260505064533 | 60 | 188 | 0.0 | 3.0 | 0.00 | 0.00 | 0.00 | 36 | 1013.2 |
| 20260505064027 | 60 | 246 | 0.0 | 6.0 | 0.00 | 0.00 | 0.00 | 36 | 1013.0 |
| 20260505063527 | 60 | 209 | 0.0 | 4.0 | 0.00 | 0.00 | 0.00 | 37 | 1013.0 |
| 20260505063027 | 60 | 215 | 0.0 | 4.0 | 0.00 | 0.00 | 0.00 | 36 | 1012.9 |
| 20260505062528 | 60 | 242 | 0.0 | 8.0 | 0.00 | 0.00 | 0.00 | 37 | 1012.9 |
| 20260505062026 | 60 | 209 | 1.0 | 8.0 | 0.00 | 0.00 | 0.00 | 36 | 1012.8 |
| 20260505061527 | 60 | 209 | 0.0 | 5.0 | 0.00 | 0.00 | 0.00 | 36 | 1013.1 |
| 20260505061026 | 60 | 245 | 0.0 | 6.0 | 0.00 | 0.00 | 0.00 | 36 | 1013.3 |
| 20260505060526 | 61 | 236 | 0.0 | 6.0 | 0.00 | 0.00 | 0.00 | 35 | 1013.4 |
| 20260505060026 | 61 | 238 | 0.0 | 3.0 | 0.00 | 0.00 | 0.00 | 35 | 1013.3 |
| 20260505055526 | 61 | 210 | 0.0 | 5.0 | 0.00 | 0.00 | 0.00 | 34 | 1013.4 |
| 20260505055026 | 61 | 216 | 0.0 | 5.0 | 0.00 | 0.00 | 0.00 | 35 | 1013.4 |
| 20260505054542 | 61 | 235 | 0.0 | 2.0 | 0.00 | 0.00 | 0.00 | 34 | 1013.3 |
| 20260505054025 | 61 | 187 | 0.0 | 3.0 | 0.00 | 0.00 | 0.00 | 35 | 1013.2 |
| 20260505053525 | 61 | 229 | 0.0 | 6.0 | 0.00 | 0.00 | 0.00 | 34 | 1013.2 |
| 20260505053025 | 61 | 250 | 0.0 | 8.0 | 0.00 | 0.00 | 0.00 | 35 | 1013.4 |
| 20260505052525 | 61 | 275 | 0.0 | 8.0 | 0.00 | 0.00 | 0.00 | 35 | 1013.2 |
| 20260505052025 | 61 | 207 | 0.0 | 4.0 | 0.00 | 0.00 | 0.00 | 35 | 1013.3 |
| 20260505051525 | 61 | 246 | 0.0 | 6.0 | 0.00 | 0.00 | 0.00 | 35 | 1013.4 |
| 20260505051025 | 60 | 204 | 0.0 | 6.0 | 0.00 | 0.00 | 0.00 | 35 | 1013.3 |
| 20260505050524 | 59 | 204 | 0.0 | 6.0 | 0.00 | 0.00 | 0.00 | 35 | 1013.4 |
| 20260505041520 | 60 | 85 | 0.0 | 0.0 | 0.00 | 0.00 | 0.00 | 38 | 1013.0 |
| 20260505041020 | 61 | 86 | 0.0 | 0.0 | 0.00 | 0.00 | 0.00 | 38 | 1013.1 |
| 20260505040520 | 62 | 85 | 0.0 | 0.0 | 0.00 | 0.00 | 0.00 | 37 | 1013.1 |
| 20260505040021 | 62 | 85 | 0.0 | 1.0 | 0.00 | 0.00 | 0.00 | 36 | 1013.0 |
| 20260505035519 | 63 | 262 | 0.0 | 3.0 | 0.00 | 0.00 | 0.00 | 33 | 1012.8 |
| 20260505035019 | 63 | 261 | 0.0 | 6.0 | 0.00 | 0.00 | 0.00 | 33 | 1012.5 |
| 20260505034525 | 63 | 217 | 0.0 | 8.0 | 0.00 | 0.00 | 0.00 | 32 | 1012.7 |
| 20260505034019 | 63 | 277 | 2.0 | 8.0 | 0.00 | 0.00 | 0.00 | 31 | 1012.8 |
| 20260505033518 | 63 | 200 | 0.0 | 5.0 | 0.00 | 0.00 | 0.00 | 31 | 1012.9 |
| 20260505033018 | 63 | 229 | 0.0 | 5.0 | 0.00 | 0.00 | 0.00 | 31 | 1013.1 |
| 20260505032517 | 64 | 214 | 0.0 | 8.0 | 0.00 | 0.00 | 0.00 | 30 | 1012.8 |
| 20260505032018 | 64 | 248 | 0.0 | 9.0 | 0.00 | 0.00 | 0.00 | 30 | 1012.7 |
| 20260505031555 | 64 | 277 | 0.0 | 9.0 | 0.00 | 0.00 | 0.00 | 29 | 1012.5 |
| 20260505031055 | 64 | 277 | 1.0 | 10.0 | 0.00 | 0.00 | 0.00 | 28 | 1012.4 |
| 20260505030558 | 64 | 218 | 0.0 | 10.0 | 0.00 | 0.00 | 0.00 | 28 | 1012.3 |
| 20260505030104 | 64 | 252 | 0.0 | 6.0 | 0.00 | 0.00 | 0.00 | 27 | 1012.4 |
| 20260505025555 | 65 | 242 | 0.0 | 9.0 | 0.00 | 0.00 | 0.00 | 27 | 1012.2 |
| 20260505025055 | 65 | 277 | 0.0 | 6.0 | 0.00 | 0.00 | 0.00 | 26 | 1012.3 |
| 20260505024610 | 65 | 251 | 0.0 | 5.0 | 0.00 | 0.00 | 0.00 | 26 | 1012.2 |
| 20260505024054 | 65 | 271 | 0.0 | 6.0 | 0.00 | 0.00 | 0.00 | 25 | 1012.1 |
| 20260505023554 | 65 | 207 | 0.0 | 6.0 | 0.00 | 0.00 | 0.00 | 24 | 1012.0 |
| 20260505023054 | 65 | 250 | 0.0 | 5.0 | 0.00 | 0.00 | 0.00 | 24 | 1011.9 |
| 20260505022556 | 66 | 239 | 0.0 | 1.0 | 0.00 | 0.00 | 0.00 | 25 | 1011.7 |
| 20260505022054 | 66 | 248 | 0.0 | 3.0 | 0.00 | 0.00 | 0.00 | 25 | 1011.9 |
| 20260505021554 | 66 | 222 | 0.0 | 3.0 | 0.00 | 0.00 | 0.00 | 24 | 1011.7 |
| 20260505021053 | 66 | 211 | 0.0 | 1.0 | 0.00 | 0.00 | 0.00 | 25 | 1011.6 |
| 20260505020553 | 67 | 200 | 0.0 | 3.0 | 0.00 | 0.00 | 0.00 | 25 | 1011.5 |
| 20260505020106 | 67 | 221 | 0.0 | 3.0 | 0.00 | 0.00 | 0.00 | 24 | 1011.5 |
| 20260505015553 | 67 | 212 | 0.0 | 0.0 | 0.00 | 0.00 | 0.00 | 25 | 1011.4 |
| 20260505015057 | 67 | 211 | 0.0 | 1.0 | 0.00 | 0.00 | 0.00 | 25 | 1011.2 |
| 20260505014553 | 68 | 214 | 0.0 | 3.0 | 0.00 | 0.00 | 0.00 | 25 | 1011.4 |
| 20260505014052 | 68 | 360 | 0.0 | 3.0 | 0.00 | 0.00 | 0.00 | 25 | 1011.3 |